Location: El Picacho
(10.0338°N, 66.6907°W)
Time: 00:09:04
(UTC+00:00)

Daily predictions for brighter satellites

Satellite Brightness Start Highest point End
(mag) Time Altitude Azimuth Time Altitude Azimuth Time Altitude Azimuth
Cosmos 2219 Rocket 2.2 00:05:03 10° SSW 00:10:42 75° WNW 00:11:13 69° NNW
SJ 16-02 2.6 00:08:42 10° SSW 00:11:57 39° WSW 00:11:57 39° WSW
Cosmos 1354 Rocket 4.5 00:11:14 10° SSW 00:15:53 58° WSW 00:15:53 58° WSW
Cosmos 2263 Rocket 3.1 00:19:21 10° NNW 00:24:44 45° WSW 00:26:11 38° SW
Cosmos 2333 Rocket 3.8 00:21:06 10° SW 00:26:10 32° WNW 00:31:01 11° N
Okean O Rocket 3.8 00:30:17 22° WNW 00:30:17 22° WNW 00:32:31 10° NW
Atlas Centaur 2 4.0 00:38:59 10° SW 00:40:46 22° SW 00:40:46 22° SW
ATLAS 5 CENTAUR R/B 3.6 00:29:13 10° W 00:56:16 51° NNW 00:56:49 50° N
USA 234 4.3 07:28:16 10° NE 07:32:59 40° E 07:32:59 40° E
Ariane H10-3 4.4 07:44:43 52° S 07:45:14 53° S 08:37:22 10° E
Ariane H10-3 4.4 07:44:43 52° S 07:45:15 53° S 08:37:22 10° E
Ariane H10-3 4.4 07:44:43 52° S 07:45:15 53° S 08:37:23 10° E
Cosmos 1697 Rocket 4.1 07:55:56 31° SE 07:55:56 31° SE 07:58:58 10° SSE
ATLAS 2A CENTAUR R/B 4.2 07:57:40 16° ESE 07:57:40 16° ESE 07:59:20 10° E
Centaur D AC-29 3.9 07:56:25 23° N 07:58:46 26° NNE 08:16:39 10° E
Envisat 4.4 07:56:30 10° NE 08:01:05 35° E 08:05:40 10° SSE
Aurora 2 Rocket 4.3 08:04:15 37° NE 08:04:15 37° NE 08:08:45 10° ENE
Intelsat 5-1 Rocket 4.1 07:59:17 53° SW 08:03:02 79° SSE 08:09:34 10° ENE
Atlas Centaur 2 4.4 08:05:30 24° N 08:08:02 27° NNE 08:14:31 10° ENE
Cosmos 1864 Rocket 4.5 08:10:41 59° SSE 08:11:52 76° E 08:18:06 10° N
GPS 2-12 Rocket1 4.1 08:18:16 46° E 08:18:16 46° E 08:21:44 10° ENE
Tiangong 1.0 08:24:21 14° ESE 08:24:21 14° ESE 08:24:52 10° ESE
GP-B 4.4 08:18:05 10° SSE 08:22:11 38° E 08:26:17 10° NNE
BLOCK DM-SL R/B 4.4 08:23:21 31° S 08:23:44 31° S 08:29:27 10° ESE
Ariane H10+ 3.5 08:26:36 25° S 08:27:10 25° SSE 08:35:12 10° ESE
Meteor 2-13 Rocket 4.5 08:25:24 10° N 08:31:33 79° E 08:37:42 10° S
Maqsat-H 3.6 08:25:19 37° WSW 08:32:04 76° S 08:37:26 10° E
Milstar 3 Cent rocket 3.3 08:27:59 29° SW 08:32:31 54° SSE 08:37:59 10° ENE
Cosmos 1725 Rocket 3.8 08:27:17 10° S 08:33:31 70° W 08:39:48 10° N
ARIANE 5 R/B 4.4 08:32:47 29° SSW 08:34:06 33° S 08:44:45 10° ESE
Cosmos 1980 Rocket 2.6 08:30:14 10° N 08:35:44 60° ENE 08:41:16 10° SSE
BREEZE-M DEB (TANK) 4.3 08:38:44 30° NNW 08:38:44 30° NNW 08:41:01 10° N
Cosmos 1954 Rocket 4.1 08:39:35 56° SW 08:39:35 56° SW 08:44:07 10° S
Ariane H10+ 4.0 08:35:46 31° WSW 08:39:14 37° SSW 08:44:35 10° SE
Cosmos 2228 Rocket 2.9 08:40:12 10° S 08:44:43 84° W 08:49:12 10° N
Meteor 2-9 Rocket 4.5 08:40:54 10° N 08:46:21 65° E 08:51:41 10° SSE
GPS 2-15 Rocket1 4.3 08:48:58 30° NNW 08:49:34 30° N 08:53:54 10° NE
Lacrosse 5 rocket 3.6 08:52:11 15° NNW 08:52:11 15° NNW 08:53:16 10° N
Cosmos 2369 3.5 08:49:15 10° NNW 08:54:52 76° WSW 09:00:29 10° S
COSMOS 2487 2.4 08:58:39 51° NNE 08:58:39 51° NNE 09:00:54 10° NNE
GOES 2 Rocket 3.3 08:59:47 30° SW 09:02:15 75° SSE 09:06:36 10° ENE
Cosmos 1833 4.1 08:57:42 10° SSW 09:03:16 62° WNW 09:08:54 10° N
NOAA 11 4.1 08:58:56 10° N 09:04:22 86° WNW 09:09:48 10° SSW
Cosmos 1707 Rocket 3.4 09:00:34 10° S 09:04:57 88° WNW 09:09:17 10° N
OAO 1 Rocket 4.4 09:03:36 30° WNW 09:06:18 81° SW 09:11:39 10° SE
CZ-2C R/B 2.4 09:03:12 10° S 09:08:21 73° WSW 09:13:35 10° NNW
Cosmos 1741 Rocket 4.3 09:03:44 10° N 09:08:54 67° ENE 09:14:04 10° SSE
SWIFT 4.2 09:08:27 16° SSW 09:09:00 16° SSW 09:11:38 10° SSE
Lacrosse 4 Rocket 4.4 09:06:55 10° NNE 09:09:50 17° ENE 09:12:46 10° ESE
Cosmos 1818 4.0 09:07:44 27° WSW 09:09:51 37° WNW 09:14:50 10° N
USA 234 4.1 09:11:46 10° N 09:17:10 28° NW 09:20:24 19° W
Cosmos 405 Rocket 4.2 09:15:13 10° SSE 09:18:48 40° E 09:22:27 10° NNE
Ariane 44LP R/B 2.9 09:17:38 21° WSW 09:19:13 31° SSW 09:21:16 10° ESE
ATLAS 5 CENTAUR R/B 3.8 09:19:10 12° SW 09:24:42 29° S 09:43:23 10° SE
ATLAS CENTAUR R/B 1.8 09:27:08 21° NW 09:27:08 21° NW 09:28:40 10° N
IKONOS-2 4.4 09:23:07 10° S 09:27:16 65° WSW 09:31:27 10° NNW
Cosmos 1869 Rocket 3.5 09:25:18 10° NNW 09:29:37 64° W 09:33:53 10° S
CZ-2C R/B 4.0 09:27:41 10° NNW 09:32:04 26° WNW 09:36:17 10° SW
DELTA 2 DEB (DPAF) 4.5 09:28:36 10° S 09:32:45 41° WSW 09:36:53 10° NNW
H-2A R/B 4.1 09:31:55 10° NNW 09:34:27 18° WNW 09:37:01 10° WSW
Cosmos 1939 Rocket 2.9 09:39:14 10° NNE 09:43:08 81° E 09:46:59 10° S
ARIANE 5 R/B 4.4 09:31:05 10° WSW 09:43:28 27° SSW 09:46:58 10° SE
SL-08 R/B 3.7 09:40:31 10° S 09:44:47 38° W 09:49:07 10° NNW
ATLAS 2A CENTAUR R/B 2.0 09:40:33 10° WSW 09:44:51 71° NNW 09:51:47 10° ENE
ARIANE 5 R/B 3.9 09:46:25 10° SSW 09:47:44 14° SSE 09:49:43 10° SE
Cosmos 1733 Rocket 4.0 09:44:13 10° N 09:48:29 53° E 09:52:42 10° SSE
H-2A R/B 3.3 09:43:33 10° NNE 09:48:43 48° E 09:53:45 10° S
Cosmos 1242 Rocket 2.3 09:47:52 10° NNW 09:51:11 67° W 09:54:31 10° S
SL-27 R/B 3.2 09:48:31 10° SW 09:51:38 31° WNW 09:54:45 10° NNW
Cosmos 1975 3.6 09:49:55 10° NNW 09:53:23 30° W 09:56:51 10° SSW
ASTRO E2 3.8 09:49:46 10° NW 09:53:26 40° NNE 09:57:06 10° E
SKYMED 2 4.4 09:49:28 10° SSE 09:53:42 57° ENE 09:57:57 10° N
DELTA 4 R/B 2.9 09:50:41 10° SW 09:53:49 67° SSE 10:04:56 10° ENE
Okean 1-7 3.4 09:49:52 10° S 09:54:10 70° E 09:58:27 10° N
Centaur AC-125 3.8 09:37:29 10° WNW 09:55:15 81° NNE 09:58:58 10° ESE
ATLAS 3B R/B 3.2 09:50:00 10° SSW 09:56:14 63° ESE 10:02:41 10° NNE
Atlas Centaur 2 3.2 09:50:22 10° NW 09:58:31 65° NNE 10:05:22 10° ESE
EPKM 4.3 09:50:31 10° SW 10:01:10 41° SSE 10:04:25 10° E
